When you browse on this site, cookies collect data to enhance your experience and personalize the content and advertising you see.
Visit our Privacy Policy to learn more. By continuing to use the site, you agree to this use of cookies and data.
  • In Czech Republic
  • List of Countries
  • For 7 days
  • Water Temperature
  • Weather Map
  • Weather Widgets
  • user-avatar
    Login

    Hourly Weather Newcastle

    Today, 23 September, Monday

    Time Temperature Precipitation Wind Pressure Humidity
    00:00 +14°C° 0 mm 3 mps 765 mmHg 97%
    01:00 +13°C° 0 mm 4 mps 765 mmHg 97%
    02:00 +13°C° 0 mm 4 mps 765 mmHg 97%
    03:00 +12°C° 0 mm 3 mps 765 mmHg 96%
    04:00 +12°C° 0 mm 3 mps 765 mmHg 94%
    05:00 +12°C° 0 mm 3 mps 765 mmHg 93%
    06:00 +12°C° 0 mm 3 mps 766 mmHg 92%
    07:00 +12°C° 0 mm 3 mps 766 mmHg 91%
    08:00 +14°C° 0 mm 3 mps 766 mmHg 76%
    09:00 +18°C° 0 mm 3 mps 766 mmHg 61%
    10:00 +20°C° 0 mm 3 mps 766 mmHg 46%
    11:00 +21°C° 0 mm 3 mps 765 mmHg 42%
    12:00 +22°C° 0 mm 3 mps 765 mmHg 39%
    13:00 +24°C° 0 mm 3 mps 764 mmHg 35%
    14:00 +22°C° 0 mm 3 mps 764 mmHg 40%
    15:00 +21°C° 0 mm 2 mps 764 mmHg 45%
    16:00 +20°C° 0 mm 4 mps 764 mmHg 51%
    17:00 +18°C° 0 mm 4 mps 765 mmHg 55%
    18:00 +17°C° 0 mm 3 mps 766 mmHg 58%
    19:00 +14°C° 0 mm 3 mps 766 mmHg 62%
    20:00 +13°C° 0 mm 3 mps 767 mmHg 63%
    21:00 +12°C° 0 mm 3 mps 768 mmHg 64%
    22:00 +11°C° 0 mm 4 mps 768 mmHg 65%
    23:00 +10°C° 0 mm 4 mps 768 mmHg 66%

    Tomorrow, 24 September, Tuesday

    Time Temperature Precipitation Wind Pressure Humidity
    00:00 +10°C° 0 mm 3 mps 768 mmHg 67%
    01:00 +9°C° 0 mm 3 mps 768 mmHg 69%
    02:00 +8°C° 0 mm 3 mps 768 mmHg 70%
    03:00 +8°C° 0 mm 3 mps 768 mmHg 72%
    04:00 +7°C° 0 mm 3 mps 768 mmHg 74%
    05:00 +8°C° 0 mm 3 mps 769 mmHg 72%
    06:00 +9°C° 0 mm 3 mps 769 mmHg 70%
    07:00 +9°C° 0 mm 3 mps 769 mmHg 68%
    08:00 +13°C° 0 mm 2 mps 769 mmHg 63%
    09:00 +16°C° 0 mm 2 mps 769 mmHg 58%
    10:00 +19°C° 0 mm 1 mps 769 mmHg 53%
    11:00 +20°C° 0 mm 1 mps 769 mmHg 51%
    12:00 +20°C° 0 mm 2 mps 768 mmHg 48%
    13:00 +21°C° 0 mm 2 mps 768 mmHg 46%
    14:00 +20°C° 0 mm 2 mps 767 mmHg 48%
    15:00 +20°C° 0 mm 3 mps 767 mmHg 50%
    16:00 +19°C° 0 mm 4 mps 767 mmHg 53%
    17:00 +17°C° 0 mm 4 mps 767 mmHg 63%
    18:00 +14°C° 0 mm 4 mps 768 mmHg 73%
    19:00 +12°C° 0 mm 4 mps 768 mmHg 83%
    20:00 +11°C° 0 mm 3 mps 769 mmHg 85%
    21:00 +11°C° 0 mm 3 mps 769 mmHg 87%
    22:00 +10°C° 0 mm 2 mps 769 mmHg 89%
    23:00 +10°C° 0 mm 2 mps 769 mmHg 91%

    Day after tomorrow, 25 September, Wednesday

    Time Temperature Precipitation Wind Pressure Humidity
    00:00 +10°C° 0 mm 2 mps 769 mmHg 92%
    01:00 +9°C° 0 mm 2 mps 769 mmHg 94%
    02:00 +9°C° 0 mm 2 mps 769 mmHg 94%
    03:00 +8°C° 0 mm 2 mps 769 mmHg 95%
    04:00 +8°C° 0 mm 2 mps 769 mmHg 95%
    05:00 +9°C° 0 mm 2 mps 769 mmHg 91%
    06:00 +9°C° 0 mm 2 mps 769 mmHg 88%
    07:00 +10°C° 0 mm 2 mps 770 mmHg 84%
    08:00 +13°C° 0 mm 3 mps 770 mmHg 75%
    09:00 +16°C° 0 mm 3 mps 769 mmHg 67%
    10:00 +19°C° 0 mm 3 mps 769 mmHg 58%
    11:00 +19°C° 0 mm 3 mps 769 mmHg 56%
    12:00 +20°C° 0 mm 3 mps 768 mmHg 54%
    13:00 +20°C° 0 mm 3 mps 768 mmHg 52%
    14:00 +19°C° 0 mm 3 mps 767 mmHg 55%
    15:00 +19°C° 0 mm 3 mps 767 mmHg 59%
    16:00 +18°C° 0 mm 3 mps 767 mmHg 62%
    17:00 +16°C° 0 mm 3 mps 767 mmHg 71%
    18:00 +15°C° 0 mm 2 mps 768 mmHg 80%
    19:00 +13°C° 0 mm 2 mps 768 mmHg 90%
    20:00 +13°C° 0 mm 2 mps 769 mmHg 91%
    21:00 +12°C° 0 mm 2 mps 769 mmHg 92%
    22:00 +12°C° 0 mm 1 mps 769 mmHg 94%
    23:00 +12°C° 0 mm 1 mps 769 mmHg 94%

    26 September, Thursday

    Time Temperature Precipitation Wind Pressure Humidity
    00:00 +12°C° 0 mm 1 mps 769 mmHg 94%
    01:00 +12°C° 0 mm 1 mps 768 mmHg 94%
    02:00 +11°C° 0 mm 1 mps 768 mmHg 95%
    03:00 +11°C° 0 mm 1 mps 768 mmHg 96%
    04:00 +11°C° 0 mm 1 mps 768 mmHg 96%
    05:00 +11°C° 0 mm 1 mps 768 mmHg 95%
    06:00 +12°C° 0 mm 2 mps 768 mmHg 93%
    07:00 +12°C° 0 mm 2 mps 768 mmHg 91%
    08:00 +15°C° 0 mm 2 mps 768 mmHg 83%
    09:00 +17°C° 0 mm 2 mps 767 mmHg 74%
    10:00 +20°C° 0 mm 2 mps 767 mmHg 65%
    11:00 +21°C° 0 mm 2 mps 766 mmHg 61%
    12:00 +23°C° 0 mm 2 mps 766 mmHg 56%
    13:00 +24°C° 0 mm 2 mps 765 mmHg 52%
    14:00 +23°C° 0 mm 2 mps 764 mmHg 55%
    15:00 +22°C° 0 mm 3 mps 764 mmHg 58%
    16:00 +21°C° 0 mm 3 mps 764 mmHg 60%
    17:00 +19°C° 0 mm 3 mps 764 mmHg 72%
    18:00 +17°C° 0 mm 3 mps 765 mmHg 83%
    19:00 +14°C° 0 mm 3 mps 765 mmHg 95%
    20:00 +14°C° 0 mm 2 mps 765 mmHg 95%
    21:00 +14°C° 0 mm 2 mps 765 mmHg 95%
    22:00 +14°C° 0 mm 1 mps 765 mmHg 96%
    23:00 +13°C° 0 mm 1 mps 765 mmHg 96%

    27 September, Friday

    Time Temperature Precipitation Wind Pressure Humidity
    00:00 +13°C° 0 mm 2 mps 765 mmHg 97%
    01:00 +13°C° 0 mm 2 mps 765 mmHg 98%
    02:00 +12°C° 0 mm 2 mps 765 mmHg 96%
    03:00 +11°C° 0 mm 3 mps 764 mmHg 94%
    04:00 +11°C° 0 mm 3 mps 764 mmHg 92%
    05:00 +11°C° 0 mm 3 mps 764 mmHg 86%
    06:00 +11°C° 0 mm 4 mps 764 mmHg 81%
    07:00 +12°C° 0 mm 4 mps 764 mmHg 75%
    08:00 +14°C° 0 mm 4 mps 764 mmHg 65%
    09:00 +18°C° 0 mm 4 mps 764 mmHg 55%
    10:00 +21°C° 0 mm 4 mps 763 mmHg 45%
    11:00 +22°C° 0 mm 3 mps 763 mmHg 41%
    12:00 +24°C° 0 mm 3 mps 763 mmHg 38%
    13:00 +26°C° 0 mm 2 mps 762 mmHg 34%
    14:00 +26°C° 0 mm 2 mps 762 mmHg 38%
    15:00 +26°C° 0 mm 2 mps 761 mmHg 42%
    16:00 +26°C° 0 mm 2 mps 761 mmHg 45%
    17:00 +23°C° 0 mm 2 mps 762 mmHg 49%
    18:00 +21°C° 0 mm 1 mps 762 mmHg 53%
    19:00 +18°C° 0 mm 1 mps 763 mmHg 57%
    20:00 +18°C° 0 mm 1 mps 763 mmHg 57%
    21:00 +16°C° 0 mm 2 mps 764 mmHg 58%
    22:00 +16°C° 0 mm 2 mps 764 mmHg 59%
    23:00 +14°C° 0 mm 3 mps 764 mmHg 65%

    28 September, Saturday

    Time Temperature Precipitation Wind Pressure Humidity
    00:00 +14°C° 0 mm 4 mps 764 mmHg 71%
    01:00 +14°C° 0 mm 5 mps 764 mmHg 77%
    02:00 +14°C° 0 mm 5 mps 765 mmHg 80%
    03:00 +14°C° 0 mm 4 mps 765 mmHg 84%
    04:00 +14°C° 0 mm 4 mps 765 mmHg 87%
    05:00 +14°C° 0.1 mm 3 mps 765 mmHg 87%
    06:00 +14°C° 0.1 mm 3 mps 766 mmHg 87%
    07:00 +14°C° 0.1 mm 3 mps 766 mmHg 87%
    08:00 +17°C° 0 mm 2 mps 766 mmHg 79%
    09:00 +18°C° 0 mm 2 mps 766 mmHg 71%
    10:00 +19°C° 0 mm 2 mps 766 mmHg 63%
    11:00 +19°C° 0 mm 2 mps 766 mmHg 62%
    12:00 +20°C° 0 mm 2 mps 765 mmHg 62%
    13:00 +20°C° 0 mm 2 mps 765 mmHg 61%
    14:00 +20°C° 0 mm 3 mps 764 mmHg 62%
    15:00 +20°C° 0 mm 3 mps 764 mmHg 63%
    16:00 +19°C° 0 mm 4 mps 764 mmHg 64%
    17:00 +18°C° 0 mm 4 mps 764 mmHg 70%
    18:00 +15°C° 0 mm 4 mps 765 mmHg 77%
    19:00 +14°C° 0 mm 4 mps 765 mmHg 83%
    20:00 +14°C° 0 mm 4 mps 766 mmHg 86%
    21:00 +13°C° 0 mm 4 mps 766 mmHg 89%
    22:00 +13°C° 0 mm 4 mps 766 mmHg 92%
    23:00 +13°C° 0 mm 4 mps 766 mmHg 93%
    Show more